Regional Weather Roundup
Issued by NWS Bismarck, ND

Home | Current Version | Previous Version | Text Only | Print | Product List | Glossary On
Versions: 1 2 3 4 5 6 7 8 9 10 11 12 13 14 15 16 17 18 19 20 21 22 23 24 25 26 27 28 29 30 31 32 33 34 35 36 37 38 39 40 41 42 43 44 45 46 47 48 49 50
000
ASUS43 KBIS 271101
RWRBIS

NWR BROADCAST TEXT
NATIONAL WEATHER SERVICE BISMARCK ND
600 AM CDT FRI MAR 27 2015

NOTE: "FAIR" INDICATES FEW OR NO CLOUDS BELOW 12,000 FEET WITH NO
SIGNIFICANT WEATHER AND/OR OBSTRUCTIONS TO VISIBILITY.


CITY           SKY/WX    TMP DP  RH WIND       PRES   REMARKS
WILLISTON      CLOUDY    37  30  75 SE7       29.98F
MINOT          LGT SNOW  29  20  69 S12       30.07F WCI  19
MINOT AFB      LGT SNOW  29  27  91 S12       30.07F FOG     WCI  19
BISMARCK       CLOUDY    26  16  65 SE10      30.17F WCI  16
DICKINSON      CLOUDY    33  29  85 S14       30.00F
GARRISON         N/A     29  20  69 S13       30.09F WCI  19
HETTINGER ARPT FLURRIES  32  28  85 SE12      30.06F
JAMESTOWN      MOCLDY    20  15  81 S8        30.22F WCI  10
CARRINGTON     FAIR      21  18  86 S13       30.20F WCI   9
CROSBY         FAIR      34  32  93 S10       29.97F
HAZEN          MIX PCPN  28  21  74 S17       30.11F WCI  16
OAKES            N/A     16  16 100 CALM      30.26F
$$

CITY           SKY/WX    TMP DP  RH WIND       PRES   REMARKS
GRAND FORKS    PTCLDY    13   9  84 S5        30.26F WCI   5
GRAND FORKS AF PTCLDY    14  10  84 S3        30.25F
DEVILS LAKE    CLOUDY    21  16  79 S9        30.18F WCI  11
FARGO          FAIR      11   7  84 CALM      30.28S
GWINNER          N/A     16  12  86 W5          N/A  WCI   9
ROLLA          CLOUDY    23  21  93 S13       30.14F WCI  11
$$

CITY           SKY/WX    TMP DP  RH WIND       PRES   REMARKS
ABERDEEN       PTCLDY    15  11  83 SW3       30.28S
MOBRIDGE       CLOUDY    26  13  57 S16       30.18F WCI  14
BUFFALO          N/A     33  30  88 S12       29.97F
RAPID CITY     CLOUDY    33  28  81 SE7       30.06F
GLASGOW        MOCLDY    35  30  82 CALM      29.95S
SIDNEY         CLOUDY    37  32  81 S8        29.95F
WOLF POINT     CLOUDY    35  32  88 W3        29.94F
GLENDIVE         N/A     37  32  81 S9        29.97F
MILES CITY     MOCLDY    39  31  72 NW9       30.00S
BAKER          MOCLDY    34  30  85 SE7       30.00F
$$

CITY           SKY/WX    TMP DP  RH WIND       PRES   REMARKS
BILLINGS       MOCLDY    50  34  54 W13       30.10S
GREAT FALLS    CLOUDY    48  33  56 SW14      30.07S
$$



USA.gov is the U.S. government's official web portal to all federal, state and local government web resources and services.